Vorticity
7 8 6 5 4 3 3 4 6 5 8 10 13 15 14 14 11 14 21 25 17 20 8 19 12 6 46 4 -2 7 6 9 27 -5 18 8 38 -3 -11 2 -5 15 8 -3 15
8 7 5 4 4 3 3 6 6 8 9 14 16 15 13 12 22 19 20 -12 10 2 2 5 22 12 12 19 16 0 14 4 18 10 6 16 10 14 -3 10 20 6 18 3 12
7 4 4 5 4 3 5 6 7 7 11 17 16 15 16 22 21 15 9 14 14 20 17 2 -5 20 32 3 14 23 -2 18 -3 14 -9 24 10 31 3 -9 21 -3 5 12 3
6 4 4 5 3 4 5 7 7 9 14 17 18 16 17 15 13 11 17 4 7 11 11 24 27 15 20 9 3 3 20 -7 28 -1 13 -11 24 24 19 -4 12 7 4 12 7
4 4 5 5 2 4 5 6 7 12 17 19 13 20 17 12 7 7 5 7 4 4 12 19 20 15 35 21 10 -3 3 24 -9 7 -1 35 -9 51 5 15 4 29 10 -1 4
4 4 6 4 2 3 5 6 8 18 21 18 20 13 12 12 10 4 9 12 10 13 11 12 25 37 19 7 16 21 0 4 14 -7 17 -1 11 -10 8 11 12 19 17 9 7
3 5 6 4 3 2 5 7 13 23 20 21 19 12 6 6 3 12 9 8 -4 5 17 14 22 7 26 13 -1 -8 28 18 13 9 4 -1 21 -42 17 23 5 11 20 4 8
2 3 6 3 4 2 4 10 20 23 27 29 -8 19 6 8 8 10 -3 16 10 13 11 11 12 27 23 18 -1 27 -20 21 38 1 6 11 12 21 48 33 -19 4 18 8 8
2 1 4 6 3 3 3 17 24 32 22 10 11 18 1 7 7 -2 7 11 11 6 9 10 7 18 23 6 24 22 38 6 10 30 2 -1 26 20 -23 21 9 6 2 7 5
1 2 2 4 2 5 6 20 29 31 14 10 -2 25 7 18 10 -1 6 8 6 17 9 2 10 20 29 21 20 -14 5 20 9 13 24 7 2 8 9 17 42 35 7 4 2
1 1 1 2 2 6 9 21 37 27 13 1 11 10 11 19 -8 9 -2 21 11 18 10 11 13 10 1 18 -4 35 5 2 6 -10 12 9 -7 16 4 12 10 28 23 -1 -2
3 1 1 4 3 5 16 26 25 28 -4 -4 11 12 1 2 16 2 14 14 16 15 9 9 -0 14 -12 17 23 -7 15 8 21 13 -0 21 27 6 9 2 7 20 31 22 18
4 3 1 6 6 6 20 29 23 28 -2 -5 7 4 1 9 -0 11 5 19 -2 11 10 11 11 13 11 3 33 16 6 15 -17 4 12 9 10 13 11 9 3 5 25 -5 25
4 3 2 6 8 11 20 28 22 27 -1 5 7 -2 6 8 -2 8 19 12 -4 9 30 11 1 1 15 7 10 9 3 22 18 4 8 11 17 10 9 11 3 5 -5 33 3
3 2 5 2 5 19 24 22 16 9 -3 14 3 3 17 12 13 14 9 14 -8 27 18 14 10 16 9 9 10 24 19 24 8 14 -7 21 -5 36 13 8 14 5 7 28 -6
3 4 7 7 7 22 28 23 13 13 -13 7 9 8 12 24 17 9 8 15 -13 -1 25 11 23 18 16 5 8 14 -5 17 15 8 7 13 -11 38 17 2 8 8 5 12 3
3 8 5 14 15 31 25 23 7 13 -1 -4 -1 9 5 29 3 5 10 9 9 38 6 23 -12 27 13 14 11 11 6 3 9 3 6 21 5 -11 25 13 22 8 11 3 17
7 7 3 8 24 28 25 16 20 0 -4 4 11 14 6 17 -10 21 14 6 -6 1 50 2 15 17 24 4 8 8 -6 9 8 8 13 -0 15 -2 31 13 12 27 10 6 16
9 4 11 12 29 22 27 13 4 8 2 6 27 15 6 1 30 21 5 -5 -5 -7 33 14 9 6 23 11 2 18 14 4 10 15 2 7 11 -1 6 19 6 23 5 8 7
7 4 12 21 30 19 9 25 4 7 9 12 11 5 -1 -3 11 11 3 -2 7 -2 34 1 12 -4 39 23 4 -1 18 8 3 4 9 18 -3 4 20 12 7 14 22 -5 8
5 7 10 19 23 13 14 13 5 5 13 14 -0 9 -1 2 8 18 -7 21 -27 1 28 1 20 -39 41 10 13 13 8 -6 9 7 5 8 6 21 13 16 -2 22 6 12 25
4 19 10 11 16 15 10 9 3 8 11 10 12 5 5 2 10 33 -12 24 -17 1 21 -9 15 5 48 9 11 16 -6 17 9 12 5 17 9 18 19 12 -2 27 14 2 27
6 14 22 19 14 11 6 8 8 12 15 12 15 6 5 6 33 1 12 -4 -3 12 1 -4 -13 13 2 -1 19 14 7 15 -20 21 12 16 11 14 12 9 -4 29 8 1 34
12 14 19 9 12 9 14 6 7 12 12 7 14 7 9 18 -2 11 1 2 23 20 4 19 8 9 -15 -16 -5 8 12 9 -5 7 12 15 8 19 13 17 19 19 10 6 3
13 8 14 5 10 8 11 5 9 15 9 10 8 12 8 11 18 -12 12 23 25 -0 2 14 11 -3 47 20 31 31 8 15 13 -6 7 22 -1 8 11 24 24 16 22 10 8
16 25 18 10 11 11 -0 11 10 10 9 7 11 15 12 8 4 9 15 6 18 8 1 7 -14 2 25 0 63 20 22 19 -0 15 13 25 3 12 10 4 8 25 15 9 14
10 16 14 8 10 13 2 8 7 8 5 13 10 14 10 10 19 22 20 25 24 17 12 9 14 18 8 14 -11 -23 17 22 15 12 13 9 6 5 16 17 4 7 23 12 13
Height
3124 3121 3118 3113 3107 3100 3093 3087 3080 3071 3063 3055 3047 3039 3033 3028 3023 3019 3016 3015 3014 3011 3007 3008 3008 3011 3012 3014 3019 3024 3023 3022 3026 3032 3037 3039 3046 3052 3056 3060 3064 3068 3073 3082 3086
3123 3119 3114 3110 3104 3097 3090 3082 3074 3066 3058 3050 3041 3034 3027 3022 3018 3015 3013 3013 3012 3009 3007 3005 3006 3006 3007 3009 3012 3016 3014 3017 3024 3030 3032 3036 3040 3043 3051 3057 3061 3065 3072 3077 3081
3121 3117 3111 3106 3101 3094 3086 3078 3070 3061 3051 3042 3035 3029 3023 3019 3015 3011 3011 3010 3009 3006 3003 3002 3002 3002 3001 3005 3008 3010 3009 3016 3021 3026 3030 3033 3037 3041 3046 3052 3056 3061 3065 3071 3078
3119 3115 3109 3103 3098 3091 3082 3073 3065 3055 3046 3038 3031 3025 3020 3018 3018 3012 3010 3009 3007 3005 3001 2998 2999 2999 2998 3000 3005 3007 3009 3013 3018 3024 3026 3030 3031 3036 3040 3047 3052 3056 3061 3068 3074
3118 3113 3107 3101 3096 3088 3079 3069 3060 3049 3040 3033 3027 3022 3019 3017 3015 3012 3010 3008 3005 3003 3000 2996 2995 2996 2994 2998 3004 3003 3007 3011 3015 3020 3022 3027 3027 3027 3034 3040 3047 3051 3057 3064 3072
3115 3110 3104 3098 3093 3085 3077 3064 3055 3045 3036 3028 3024 3021 3019 3018 3015 3011 3008 3007 3004 3001 2999 2996 2994 2993 2992 2995 3000 3000 3003 3006 3011 3015 3018 3020 3023 3021 3030 3035 3043 3047 3053 3061 3068
3113 3108 3101 3095 3088 3082 3073 3061 3050 3040 3032 3026 3022 3020 3019 3018 3014 3011 3009 3006 3003 3000 2998 2996 2994 2993 2993 2994 2995 2999 3003 3005 3007 3012 3015 3017 3018 3022 3026 3034 3040 3044 3050 3056 3062
3111 3105 3098 3091 3084 3076 3070 3058 3046 3036 3029 3024 3022 3019 3018 3016 3013 3011 3009 3007 3003 2999 2997 2995 2994 2992 2991 2993 2996 2999 3000 3002 3004 3009 3013 3017 3019 3021 3021 3026 3033 3040 3046 3052 3058
3108 3102 3094 3087 3079 3071 3064 3054 3042 3034 3029 3026 3024 3020 3019 3017 3015 3012 3009 3006 3002 3000 2997 2995 2994 2992 2991 2993 2996 2997 2997 2999 3003 3007 3010 3012 3013 3017 3018 3021 3026 3037 3042 3049 3055
3106 3099 3090 3083 3075 3068 3058 3048 3040 3034 3031 3028 3026 3025 3022 3018 3015 3013 3009 3005 3001 2998 2997 2995 2994 2991 2990 2993 2994 2996 2997 2999 3002 3006 3008 3011 3015 3016 3018 3021 3025 3033 3042 3048 3053
3104 3097 3089 3081 3073 3063 3053 3043 3040 3035 3032 3030 3029 3025 3022 3019 3016 3012 3008 3004 3001 2998 2996 2995 2994 2993 2992 2992 2993 2995 2998 3000 3001 3003 3004 3007 3014 3018 3018 3021 3023 3026 3033 3042 3050
3102 3095 3086 3080 3072 3062 3050 3041 3034 3032 3031 3030 3028 3025 3022 3018 3015 3012 3008 3004 3001 2998 2996 2996 2994 2994 2993 2993 2993 2996 2997 2999 3002 3002 3002 3004 3008 3014 3018 3022 3023 3028 3030 3038 3046
3099 3093 3085 3077 3069 3062 3049 3040 3034 3032 3031 3029 3027 3024 3021 3020 3016 3011 3008 3004 3002 2999 2997 2995 2995 2994 2993 2993 2993 2995 2997 2998 3000 3001 3003 3004 3005 3008 3015 3020 3022 3027 3027 3032 3040
3097 3090 3082 3075 3067 3055 3046 3038 3033 3031 3030 3031 3027 3026 3023 3020 3018 3014 3009 3007 3003 2999 2996 2996 2995 2995 2994 2994 2994 2995 2997 2997 3000 3003 3001 3003 3004 3005 3010 3013 3017 3024 3026 3030 3036
3094 3087 3079 3070 3064 3056 3045 3037 3033 3032 3037 3035 3031 3026 3024 3021 3018 3015 3010 3007 3004 3000 2999 2997 2995 2995 2995 2995 2995 2996 2996 2997 3000 3004 3005 3003 3006 3003 3006 3008 3013 3015 3021 3028 3034
3092 3084 3077 3072 3063 3053 3044 3038 3034 3035 3038 3037 3034 3028 3024 3020 3018 3015 3012 3009 3004 3001 2998 2996 2995 2995 2995 2995 2995 2996 2996 2997 3000 3004 3007 3004 3006 3004 3003 3006 3013 3016 3022 3025 3030
3090 3082 3073 3066 3058 3049 3042 3039 3037 3035 3043 3038 3032 3028 3026 3020 3018 3014 3012 3008 3007 3003 2999 2997 2995 2994 2995 2996 2996 2996 2996 2997 3003 3006 3007 3003 3005 3002 3006 3008 3012 3016 3021 3027 3030
3088 3081 3073 3064 3056 3048 3042 3040 3037 3042 3039 3038 3034 3029 3026 3024 3020 3016 3014 3012 3011 3009 3003 3000 2996 2996 2995 2996 2997 2997 2998 2998 3010 3005 3002 3002 3002 3003 3004 3005 3009 3014 3021 3024 3028
3084 3078 3072 3064 3054 3047 3043 3040 3043 3042 3040 3037 3033 3028 3026 3025 3024 3019 3016 3015 3013 3011 3011 3004 2997 2996 2995 2995 2998 2997 2997 2998 2997 2998 3000 3000 3000 3002 3003 3006 3007 3011 3015 3020 3025
3082 3074 3068 3060 3052 3046 3045 3044 3044 3042 3039 3038 3035 3031 3026 3023 3022 3019 3017 3016 3015 3013 3010 3008 3000 2995 2993 2995 2997 2997 2998 2999 2998 3003 3004 3000 2999 3001 3000 3002 3005 3009 3014 3022 3028
3079 3071 3065 3057 3052 3048 3043 3045 3044 3043 3040 3039 3036 3033 3030 3027 3024 3022 3021 3017 3015 3012 3010 3007 3005 2997 2993 2994 2995 2998 2998 2998 2998 2999 3000 3002 3004 2999 2997 2999 3003 3007 3010 3020 3023
3076 3070 3063 3056 3054 3048 3045 3044 3044 3044 3042 3040 3036 3033 3031 3028 3024 3022 3021 3020 3016 3013 3009 3007 3003 2997 2994 2994 2995 2997 2998 2998 2997 2998 2997 2997 3004 2999 2999 3000 3005 3007 3011 3014 3022
3072 3065 3060 3055 3051 3048 3046 3045 3044 3044 3041 3038 3036 3033 3030 3028 3025 3022 3019 3019 3016 3012 3010 3008 3005 2999 2996 2996 2996 2997 2998 2997 2997 2995 2994 2995 3001 2999 3001 3002 3005 3007 3010 3016 3021
3071 3062 3057 3055 3051 3049 3048 3046 3045 3042 3039 3037 3034 3029 3027 3024 3023 3021 3020 3018 3015 3013 3011 3009 3006 3004 3004 3000 2999 2996 2996 2997 2998 2998 2996 2997 2999 3001 3001 3004 3008 3009 3009 3013 3018
3069 3063 3057 3054 3050 3049 3047 3046 3044 3043 3040 3037 3033 3029 3024 3022 3019 3019 3019 3016 3014 3013 3011 3009 3006 3003 2998 2995 2993 2992 2995 2996 2997 3002 3001 3003 3002 3002 3004 3005 3005 3006 3009 3014 3017
3067 3061 3057 3054 3051 3049 3046 3045 3044 3042 3038 3034 3030 3027 3025 3023 3020 3015 3016 3016 3014 3014 3011 3009 3006 3001 2996 2996 2991 2990 2993 2996 2997 2999 3001 3003 3004 3006 3007 3007 3006 3008 3010 3013 3017
3064 3059 3055 3052 3049 3047 3045 3044 3044 3042 3038 3033 3030 3027 3024 3022 3019 3017 3015 3015 3015 3013 3010 3008 3006 3002 2997 2995 2994 2995 2997 2998 2999 3000 3002 3003 3005 3005 3007 3007 3007 3009 3010 3014 3017